Time,TemperatureF,DewpointF,PressureIn,WindDirection,WindDirectionDegrees,WindSpeedMPH,WindSpeedGustMPH,Humidity,HourlyPrecipIn,Conditions,Clouds,dailyrainin,SoftwareType,DateUTC
2013-03-30 00:00:00,68.7,37.6,-100.00,SW,223,8.0,10.0,32,0.00,,,0.00,meteohub,2013-03-30 07:00:00,
2013-03-30 00:05:00,68.5,37.6,-100.00,SW,215,7.0,10.0,32,0.00,,,0.00,meteohub,2013-03-30 07:05:00,
2013-03-30 00:10:00,68.5,38.3,-100.00,SSW,209,6.0,12.0,33,0.00,,,0.00,meteohub,2013-03-30 07:10:00,
2013-03-30 00:15:00,68.4,38.8,-100.00,SW,215,14.0,14.0,34,0.00,,,0.00,meteohub,2013-03-30 07:15:00,
2013-03-30 00:20:00,68.2,38.7,-100.00,SSW,207,9.0,15.0,34,0.00,,,0.00,meteohub,2013-03-30 07:20:00,
2013-03-30 00:25:00,68.2,37.9,-100.00,SW,227,7.0,15.0,33,0.00,,,0.00,meteohub,2013-03-30 07:25:00,
2013-03-30 00:30:00,68.0,38.7,-100.00,SSW,211,5.0,18.0,34,0.00,,,0.00,meteohub,2013-03-30 07:30:00,
2013-03-30 00:35:00,68.0,38.7,-100.00,SW,225,10.0,18.0,34,0.00,,,0.00,meteohub,2013-03-30 07:35:00,
2013-03-30 00:40:00,67.8,37.6,-100.00,SSW,208,7.0,18.0,33,0.00,,,0.00,meteohub,2013-03-30 07:40:00,
2013-03-30 00:45:00,67.8,37.6,-100.00,SW,231,7.0,16.0,33,0.00,,,0.00,meteohub,2013-03-30 07:45:00,
2013-03-30 00:50:00,67.8,37.6,-100.00,SW,232,7.0,14.0,33,0.00,,,0.00,meteohub,2013-03-30 07:50:00,
2013-03-30 00:55:00,67.8,36.9,-100.00,SW,229,4.0,14.0,32,0.00,,,0.00,meteohub,2013-03-30 07:55:00,
2013-03-30 01:00:00,67.8,37.6,-100.00,WSW,241,3.0,13.0,33,0.00,,,0.00,meteohub,2013-03-30 08:00:00,
2013-03-30 01:05:00,67.6,36.7,-100.00,SW,220,5.0,10.0,32,0.00,,,0.00,meteohub,2013-03-30 08:05:00,
2013-03-30 01:10:00,67.6,36.0,-100.00,SW,217,5.0,11.0,31,0.00,,,0.00,meteohub,2013-03-30 08:10:00,
2013-03-30 01:15:00,67.6,35.1,-100.00,South,190,5.0,11.0,30,0.00,,,0.00,meteohub,2013-03-30 08:15:00,
2013-03-30 01:20:00,67.8,35.2,-100.00,SW,227,10.0,12.0,30,0.00,,,0.00,meteohub,2013-03-30 08:20:00,
2013-03-30 01:25:00,67.8,33.4,-100.00,SSW,213,5.0,13.0,28,0.00,,,0.00,meteohub,2013-03-30 08:25:00,
2013-03-30 01:30:00,67.8,32.5,-100.00,SSW,208,6.0,15.0,27,0.00,,,0.00,meteohub,2013-03-30 08:30:00,
2013-03-30 01:35:00,67.8,31.6,-100.00,SW,217,6.0,15.0,26,0.00,,,0.00,meteohub,2013-03-30 08:35:00,
2013-03-30 01:40:00,67.8,30.7,-100.00,SW,219,10.0,15.0,25,0.00,,,0.00,meteohub,2013-03-30 08:40:00,
2013-03-30 01:45:00,67.8,30.7,-100.00,SSW,192,15.0,15.0,25,0.00,,,0.00,meteohub,2013-03-30 08:45:00,
2013-03-30 01:50:00,67.8,30.7,-100.00,SSW,194,6.0,16.0,25,0.00,,,0.00,meteohub,2013-03-30 08:50:00,
2013-03-30 01:55:00,67.8,29.7,-100.00,SSW,205,2.0,16.0,24,0.00,,,0.00,meteohub,2013-03-30 08:55:00,
2013-03-30 02:00:00,67.8,29.7,-100.00,SSW,195,7.0,15.0,24,0.00,,,0.00,meteohub,2013-03-30 09:00:00,
2013-03-30 02:05:00,67.8,28.6,-100.00,South,174,3.0,12.0,23,0.00,,,0.00,meteohub,2013-03-30 09:05:00,
2013-03-30 02:10:00,67.8,28.6,-100.00,South,182,2.0,12.0,23,0.00,,,0.00,meteohub,2013-03-30 09:10:00,
2013-03-30 02:15:00,67.6,28.6,-100.00,SSE,152,2.0,12.0,23,0.00,,,0.00,meteohub,2013-03-30 09:15:00,
2013-03-30 02:20:00,67.6,30.6,-100.00,NNE,24,3.0,7.0,25,0.00,,,0.00,meteohub,2013-03-30 09:20:00,
2013-03-30 02:25:00,67.5,30.4,-100.00,NNE,24,5.0,6.0,25,0.00,,,0.00,meteohub,2013-03-30 09:25:00,
2013-03-30 02:30:00,67.3,30.2,-100.00,NNE,14,2.0,7.0,25,0.00,,,0.00,meteohub,2013-03-30 09:30:00,
2013-03-30 02:34:00,67.3,30.2,-100.00,North,5,5.0,7.0,25,0.00,,,0.00,meteohub,2013-03-30 09:34:00,
2013-03-30 02:39:00,66.9,30.0,-100.00,North,355,4.0,7.0,25,0.00,,,0.00,meteohub,2013-03-30 09:39:00,
2013-03-30 02:44:00,66.6,28.6,-100.00,NNW,328,5.0,7.0,24,0.00,,,0.00,meteohub,2013-03-30 09:44:00,
2013-03-30 02:49:00,66.6,29.7,-100.00,NW,325,3.0,7.0,25,0.00,,,0.00,meteohub,2013-03-30 09:49:00,
2013-03-30 02:54:00,66.4,28.4,-100.00,WNW,284,4.0,7.0,24,0.00,,,0.00,meteohub,2013-03-30 09:54:00,
2013-03-30 02:59:00,66.4,29.5,-100.00,WNW,300,5.0,7.0,25,0.00,,,0.00,meteohub,2013-03-30 09:59:00,
2013-03-30 03:04:00,66.6,28.6,-100.00,WNW,287,5.0,6.0,24,0.00,,,0.00,meteohub,2013-03-30 10:04:00,
2013-03-30 03:09:00,66.4,28.4,-100.00,WNW,288,3.0,7.0,24,0.00,,,0.00,meteohub,2013-03-30 10:09:00,
2013-03-30 03:14:00,66.2,29.3,-100.00,WNW,288,0.0,7.0,25,0.00,,,0.00,meteohub,2013-03-30 10:14:00,
2013-03-30 03:19:00,66.0,29.1,-100.00,WNW,288,3.0,7.0,25,0.00,,,0.00,meteohub,2013-03-30 10:19:00,
2013-03-30 03:24:00,66.0,29.1,-100.00,WNW,288,3.0,6.0,25,0.00,,,0.00,meteohub,2013-03-30 10:24:00,
2013-03-30 03:29:00,65.8,28.9,-100.00,WSW,245,6.0,6.0,25,0.00,,,0.00,meteohub,2013-03-30 10:29:00,
2013-03-30 03:34:00,65.5,29.7,-100.00,West,266,3.0,6.0,26,0.00,,,0.00,meteohub,2013-03-30 10:34:00,
2013-03-30 03:39:00,65.5,29.7,-100.00,WNW,284,2.0,6.0,26,0.00,,,0.00,meteohub,2013-03-30 10:39:00,
2013-03-30 03:44:00,65.5,29.7,-100.00,West,273,5.0,6.0,26,0.00,,,0.00,meteohub,2013-03-30 10:44:00,
2013-03-30 03:49:00,65.3,30.4,-100.00,WSW,254,5.0,6.0,27,0.00,,,0.00,meteohub,2013-03-30 10:49:00,
2013-03-30 03:54:00,65.1,30.4,-100.00,WSW,238,5.0,7.0,27,0.00,,,0.00,meteohub,2013-03-30 10:54:00,
2013-03-30 03:59:00,65.1,30.4,-100.00,SW,215,5.0,8.0,27,0.00,,,0.00,meteohub,2013-03-30 10:59:00,
2013-03-30 04:04:00,65.1,30.4,-100.00,SW,214,5.0,8.0,27,0.00,,,0.00,meteohub,2013-03-30 11:04:00,
2013-03-30 04:09:00,65.1,30.4,-100.00,SW,216,3.0,8.0,27,0.00,,,0.00,meteohub,2013-03-30 11:09:00,
2013-03-30 04:14:00,64.9,30.2,-100.00,SW,216,1.0,8.0,27,0.00,,,0.00,meteohub,2013-03-30 11:14:00,
2013-03-30 04:19:00,64.8,30.0,-100.00,SW,219,2.0,7.0,27,0.00,,,0.00,meteohub,2013-03-30 11:19:00,
2013-03-30 04:24:00,64.6,29.8,-100.00,WSW,239,3.0,6.0,27,0.00,,,0.00,meteohub,2013-03-30 11:24:00,
2013-03-30 04:29:00,64.6,30.7,-100.00,WSW,242,2.0,4.0,28,0.00,,,0.00,meteohub,2013-03-30 11:29:00,
2013-03-30 04:34:00,64.2,30.4,-100.00,WSW,243,2.0,6.0,28,0.00,,,0.00,meteohub,2013-03-30 11:34:00,
2013-03-30 04:39:00,64.0,30.2,-100.00,SSW,194,8.0,8.0,28,0.00,,,0.00,meteohub,2013-03-30 11:39:00,
2013-03-30 04:44:00,63.9,29.3,-100.00,WSW,238,5.0,9.0,27,0.00,,,0.00,meteohub,2013-03-30 11:44:00,
2013-03-30 04:49:00,63.9,29.3,-100.00,SSW,205,4.0,9.0,27,0.00,,,0.00,meteohub,2013-03-30 11:49:00,
2013-03-30 04:54:00,64.2,29.5,-100.00,SW,225,6.0,12.0,27,0.00,,,0.00,meteohub,2013-03-30 11:54:00,
2013-03-30 04:59:00,64.2,29.5,-100.00,SSW,210,6.0,12.0,27,0.00,,,0.00,meteohub,2013-03-30 11:59:00,
2013-03-30 05:04:00,64.6,29.8,-100.00,SW,225,2.0,12.0,27,0.00,,,0.00,meteohub,2013-03-30 12:04:00,
2013-03-30 05:09:00,64.4,29.7,-100.00,SSW,209,5.0,10.0,27,0.00,,,0.00,meteohub,2013-03-30 12:09:00,
2013-03-30 05:14:00,64.4,29.7,-100.00,SSW,205,5.0,10.0,27,0.00,,,0.00,meteohub,2013-03-30 12:14:00,
2013-03-30 05:19:00,64.8,30.0,-100.00,SW,235,6.0,9.0,27,0.00,,,0.00,meteohub,2013-03-30 12:19:00,
2013-03-30 05:24:00,64.8,30.0,-100.00,SSW,207,6.0,9.0,27,0.00,,,0.00,meteohub,2013-03-30 12:24:00,
2013-03-30 05:29:00,64.8,30.0,-100.00,SSW,209,4.0,10.0,27,0.00,,,0.00,meteohub,2013-03-30 12:29:00,
2013-03-30 05:34:00,64.8,30.0,-100.00,SW,229,2.0,10.0,27,0.00,,,0.00,meteohub,2013-03-30 12:34:00,
2013-03-30 05:39:00,64.8,30.0,-100.00,SW,231,1.0,10.0,27,0.00,,,0.00,meteohub,2013-03-30 12:39:00,
2013-03-30 05:44:00,64.9,30.2,-100.00,SW,231,3.0,8.0,27,0.00,,,0.00,meteohub,2013-03-30 12:44:00,
2013-03-30 05:49:00,64.9,30.2,-100.00,SW,225,2.0,4.0,27,0.00,,,0.00,meteohub,2013-03-30 12:49:00,
2013-03-30 05:54:00,64.8,30.0,-100.00,SW,223,1.0,4.0,27,0.00,,,0.00,meteohub,2013-03-30 12:54:00,
2013-03-30 05:59:00,64.6,29.8,-100.00,SW,228,0.0,4.0,27,0.00,,,0.00,meteohub,2013-03-30 12:59:00,
2013-03-30 06:04:00,64.6,29.8,-100.00,SW,216,1.0,4.0,27,0.00,,,0.00,meteohub,2013-03-30 13:04:00,
2013-03-30 06:09:00,64.4,29.7,-100.00,SW,214,0.0,5.0,27,0.00,,,0.00,meteohub,2013-03-30 13:09:00,
2013-03-30 06:14:00,64.2,30.4,-100.00,SW,214,2.0,5.0,28,0.00,,,0.00,meteohub,2013-03-30 13:14:00,
2013-03-30 06:19:00,63.9,30.2,-100.00,SSW,208,2.0,5.0,28,0.00,,,0.00,meteohub,2013-03-30 13:19:00,
2013-03-30 06:24:00,63.7,30.0,-100.00,ESE,107,1.0,2.0,28,0.00,,,0.00,meteohub,2013-03-30 13:24:00,
2013-03-30 06:29:00,63.1,30.4,-100.00,East,86,2.0,3.0,29,0.00,,,0.00,meteohub,2013-03-30 13:29:00,
2013-03-30 06:34:00,63.0,30.2,-100.00,East,84,2.0,3.0,29,0.00,,,0.00,meteohub,2013-03-30 13:34:00,
2013-03-30 06:39:00,63.0,30.2,-100.00,East,84,0.0,3.0,29,0.00,,,0.00,meteohub,2013-03-30 13:39:00,
2013-03-30 06:44:00,63.0,30.2,-100.00,East,84,0.0,3.0,29,0.00,,,0.00,meteohub,2013-03-30 13:44:00,
2013-03-30 06:49:00,63.0,30.2,-100.00,East,84,0.0,3.0,29,0.00,,,0.00,meteohub,2013-03-30 13:49:00,
2013-03-30 06:54:00,63.0,30.2,-100.00,East,84,0.0,1.0,29,0.00,,,0.00,meteohub,2013-03-30 13:54:00,
2013-03-30 06:59:00,63.0,31.1,-100.00,East,84,1.0,0.0,30,0.00,,,0.00,meteohub,2013-03-30 13:59:00,
2013-03-30 07:04:00,62.8,30.9,-100.00,ENE,74,4.0,0.0,30,0.00,,,0.00,meteohub,2013-03-30 14:04:00,
2013-03-30 07:09:00,63.0,30.2,-100.00,West,264,8.0,8.0,29,0.00,,,0.00,meteohub,2013-03-30 14:09:00,
2013-03-30 07:14:00,63.1,30.4,-100.00,West,273,6.0,8.0,29,0.00,,,0.00,meteohub,2013-03-30 14:14:00,
2013-03-30 07:19:00,63.3,30.6,-100.00,WNW,282,5.0,9.0,29,0.00,,,0.00,meteohub,2013-03-30 14:19:00,
2013-03-30 07:24:00,63.3,31.3,-100.00,West,275,3.0,9.0,30,0.00,,,0.00,meteohub,2013-03-30 14:24:00,
2013-03-30 07:29:00,63.3,31.3,-100.00,WSW,258,5.0,9.0,30,0.00,,,0.00,meteohub,2013-03-30 14:29:00,
2013-03-30 07:34:00,63.3,31.3,-100.00,WSW,257,5.0,6.0,30,0.00,,,0.00,meteohub,2013-03-30 14:34:00,
2013-03-30 07:39:00,63.1,32.0,-100.00,WSW,252,5.0,7.0,31,0.00,,,0.00,meteohub,2013-03-30 14:39:00,
2013-03-30 07:44:00,63.3,31.3,-100.00,SW,225,4.0,7.0,30,0.00,,,0.00,meteohub,2013-03-30 14:44:00,
2013-03-30 07:49:00,63.3,31.3,-100.00,SW,229,6.0,7.0,30,0.00,,,0.00,meteohub,2013-03-30 14:49:00,
2013-03-30 07:54:00,63.5,31.5,-100.00,SW,236,7.0,10.0,30,0.00,,,0.00,meteohub,2013-03-30 14:54:00,
2013-03-30 07:59:00,63.7,30.7,-100.00,WSW,243,4.0,10.0,29,0.00,,,0.00,meteohub,2013-03-30 14:59:00,
2013-03-30 08:04:00,64.0,32.0,-100.00,West,272,5.0,10.0,30,0.00,,,0.00,meteohub,2013-03-30 15:04:00,
2013-03-30 08:09:00,64.2,31.3,-100.00,West,265,6.0,10.0,29,0.00,,,0.00,meteohub,2013-03-30 15:09:00,
2013-03-30 08:14:00,64.6,32.4,-100.00,WSW,258,5.0,9.0,30,0.00,,,0.00,meteohub,2013-03-30 15:14:00,
2013-03-30 08:19:00,64.9,32.0,-100.00,West,268,5.0,8.0,29,0.00,,,0.00,meteohub,2013-03-30 15:19:00,
2013-03-30 08:24:00,64.9,32.7,-100.00,West,261,4.0,8.0,30,0.00,,,0.00,meteohub,2013-03-30 15:24:00,
2013-03-30 08:29:00,64.9,32.7,-100.00,West,263,3.0,8.0,30,0.00,,,0.00,meteohub,2013-03-30 15:29:00,
2013-03-30 08:34:00,65.1,32.9,-100.00,WSW,252,7.0,7.0,30,0.00,,,0.00,meteohub,2013-03-30 15:34:00,
2013-03-30 08:39:00,65.5,33.3,-100.00,WSW,255,5.0,7.0,30,0.00,,,0.00,meteohub,2013-03-30 15:39:00,
2013-03-30 08:44:00,65.7,33.4,-100.00,West,261,6.0,7.0,30,0.00,,,0.00,meteohub,2013-03-30 15:44:00,
2013-03-30 08:49:00,65.7,33.4,-100.00,West,260,5.0,7.0,30,0.00,,,0.00,meteohub,2013-03-30 15:49:00,
2013-03-30 08:54:00,66.0,33.6,-100.00,West,259,1.0,7.0,30,0.00,,,0.00,meteohub,2013-03-30 15:54:00,
2013-03-30 08:59:00,66.6,33.3,-100.00,WSW,238,2.0,7.0,29,0.00,,,0.00,meteohub,2013-03-30 15:59:00,
2013-03-30 09:04:00,66.9,34.5,-100.00,WSW,239,3.0,6.0,30,0.00,,,0.00,meteohub,2013-03-30 16:04:00,
2013-03-30 09:09:00,67.1,34.7,-100.00,West,261,4.0,4.0,30,0.00,,,0.00,meteohub,2013-03-30 16:09:00,
2013-03-30 09:14:00,67.3,34.0,-100.00,WSW,240,3.0,4.0,29,0.00,,,0.00,meteohub,2013-03-30 16:14:00,
2013-03-30 09:19:00,67.5,33.3,-100.00,SW,235,3.0,6.0,28,0.00,,,0.00,meteohub,2013-03-30 16:19:00,
2013-03-30 09:24:00,67.5,34.9,-100.00,West,259,6.0,6.0,30,0.00,,,0.00,meteohub,2013-03-30 16:24:00,
2013-03-30 09:29:00,68.2,33.8,-100.00,West,265,3.0,7.0,28,0.00,,,0.00,meteohub,2013-03-30 16:29:00,
2013-03-30 09:34:00,69.1,33.6,-100.00,WSW,238,2.0,9.0,27,0.00,,,0.00,meteohub,2013-03-30 16:34:00,
2013-03-30 09:39:00,69.3,33.8,-100.00,WSW,258,0.0,9.0,27,0.00,,,0.00,meteohub,2013-03-30 16:39:00,
2013-03-30 09:44:00,69.3,33.8,-100.00,WSW,257,5.0,9.0,27,0.00,,,0.00,meteohub,2013-03-30 16:44:00,
2013-03-30 09:49:00,69.6,35.1,-100.00,WNW,283,2.0,7.0,28,0.00,,,0.00,meteohub,2013-03-30 16:49:00,
2013-03-30 09:54:00,70.0,33.4,-100.00,West,272,3.0,6.0,26,0.00,,,0.00,meteohub,2013-03-30 16:54:00,
2013-03-30 09:59:00,70.0,33.4,-100.00,West,276,4.0,6.0,26,0.00,,,0.00,meteohub,2013-03-30 16:59:00,
2013-03-30 10:04:00,70.2,32.7,-100.00,West,276,4.0,4.0,25,0.00,,,0.00,meteohub,2013-03-30 17:04:00,
2013-03-30 10:09:00,70.3,32.9,-100.00,West,262,1.0,4.0,25,0.00,,,0.00,meteohub,2013-03-30 17:09:00,
2013-03-30 10:14:00,71.2,32.5,-100.00,WNW,298,1.0,4.0,24,0.00,,,0.00,meteohub,2013-03-30 17:14:00,
2013-03-30 10:19:00,71.8,32.0,-100.00,WNW,296,1.0,4.0,23,0.00,,,0.00,meteohub,2013-03-30 17:19:00,
2013-03-30 10:24:00,72.0,29.8,-100.00,SW,215,0.0,4.0,21,0.00,,,0.00,meteohub,2013-03-30 17:24:00,
2013-03-30 10:29:00,72.9,30.6,-100.00,SSW,213,0.0,4.0,21,0.00,,,0.00,meteohub,2013-03-30 17:29:00,
2013-03-30 10:34:00,73.2,29.7,-100.00,SW,234,0.0,3.0,20,0.00,,,0.00,meteohub,2013-03-30 17:34:00,
2013-03-30 10:39:00,73.9,30.4,-100.00,SSW,209,0.0,5.0,20,0.00,,,0.00,meteohub,2013-03-30 17:39:00,
2013-03-30 10:44:00,73.9,30.4,-100.00,SW,221,0.0,5.0,20,0.00,,,0.00,meteohub,2013-03-30 17:44:00,
2013-03-30 10:49:00,74.1,29.3,-100.00,ENE,57,0.0,5.0,19,0.00,,,0.00,meteohub,2013-03-30 17:49:00,
2013-03-30 10:54:00,75.2,28.8,-100.00,East,89,2.0,5.0,18,0.00,,,0.00,meteohub,2013-03-30 17:54:00,
2013-03-30 10:59:00,75.7,29.3,-100.00,SSE,163,4.0,5.0,18,0.00,,,0.00,meteohub,2013-03-30 17:59:00,
2013-03-30 11:04:00,76.3,28.2,-100.00,SSE,153,4.0,6.0,17,0.00,,,0.00,meteohub,2013-03-30 18:04:00,
2013-03-30 11:09:00,76.3,28.2,-100.00,SSW,192,1.0,7.0,17,0.00,,,0.00,meteohub,2013-03-30 18:09:00,
2013-03-30 11:14:00,76.3,28.2,-100.00,SSW,192,0.0,7.0,17,0.00,,,0.00,meteohub,2013-03-30 18:14:00,
2013-03-30 11:19:00,76.5,29.8,-100.00,SSW,209,0.0,7.0,18,0.00,,,0.00,meteohub,2013-03-30 18:19:00,
2013-03-30 11:24:00,77.2,25.9,-100.00,SSE,154,0.0,6.0,15,0.00,,,0.00,meteohub,2013-03-30 18:24:00,
2013-03-30 11:29:00,76.5,27.0,-100.00,SSE,161,5.0,5.0,16,0.00,,,0.00,meteohub,2013-03-30 18:29:00,
2013-03-30 11:34:00,76.3,26.8,-100.00,WSW,244,4.0,5.0,16,0.00,,,0.00,meteohub,2013-03-30 18:34:00,
2013-03-30 11:39:00,76.8,25.7,-100.00,WSW,240,2.0,6.0,15,0.00,,,0.00,meteohub,2013-03-30 18:39:00,
2013-03-30 11:44:00,77.7,24.8,-100.00,WSW,244,3.0,6.0,14,0.00,,,0.00,meteohub,2013-03-30 18:44:00,
2013-03-30 11:49:00,77.2,25.9,-100.00,NE,52,7.0,7.0,15,0.00,,,0.00,meteohub,2013-03-30 18:49:00,
2013-03-30 11:54:00,78.3,25.2,-100.00,East,86,2.0,4.0,14,0.00,,,0.00,meteohub,2013-03-30 18:54:00,
2013-03-30 11:59:00,78.4,25.3,-100.00,NNE,28,1.0,9.0,14,0.00,,,0.00,meteohub,2013-03-30 18:59:00,
2013-03-30 12:04:00,78.1,25.0,-100.00,NNE,21,1.0,9.0,14,0.00,,,0.00,meteohub,2013-03-30 19:04:00,
2013-03-30 12:09:00,78.8,19.8,-100.00,SE,140,15.0,15.0,11,0.00,,,0.00,meteohub,2013-03-30 19:09:00,
2013-03-30 12:14:00,79.9,22.8,-100.00,SSE,150,5.0,11.0,12,0.00,,,0.00,meteohub,2013-03-30 19:14:00,
2013-03-30 12:19:00,80.6,21.2,-100.00,SSE,147,10.0,15.0,11,0.00,,,0.00,meteohub,2013-03-30 19:19:00,
2013-03-30 12:24:00,80.1,20.8,-100.00,SE,131,4.0,15.0,11,0.00,,,0.00,meteohub,2013-03-30 19:24:00,
2013-03-30 12:29:00,80.1,18.5,-100.00,ESE,117,4.0,13.0,10,0.00,,,0.00,meteohub,2013-03-30 19:29:00,
2013-03-30 12:34:00,79.0,19.9,-100.00,ESE,117,1.0,13.0,11,0.00,,,0.00,meteohub,2013-03-30 19:34:00,
2013-03-30 12:39:00,79.3,24.3,-100.00,WSW,241,3.0,13.0,13,0.00,,,0.00,meteohub,2013-03-30 19:39:00,
2013-03-30 12:44:00,80.2,23.0,-100.00,South,177,8.0,13.0,12,0.00,,,0.00,meteohub,2013-03-30 19:44:00,
2013-03-30 12:50:00,80.8,23.4,-100.00,SSE,167,6.0,9.0,12,0.00,,,0.00,meteohub,2013-03-30 19:50:00,
2013-03-30 12:55:00,81.5,21.9,-100.00,ESE,111,5.0,13.0,11,0.00,,,0.00,meteohub,2013-03-30 19:55:00,
2013-03-30 13:00:00,81.7,24.1,-100.00,SE,146,10.0,13.0,12,0.00,,,0.00,meteohub,2013-03-30 20:00:00,
2013-03-30 13:05:00,81.1,23.7,-100.00,South,183,10.0,11.0,12,0.00,,,0.00,meteohub,2013-03-30 20:05:00,
2013-03-30 13:10:00,81.1,25.7,-100.00,SSE,148,3.0,17.0,13,0.00,,,0.00,meteohub,2013-03-30 20:10:00,
2013-03-30 13:15:00,81.1,23.7,-100.00,SE,139,2.0,17.0,12,0.00,,,0.00,meteohub,2013-03-30 20:15:00,
2013-03-30 13:20:00,81.0,23.5,-100.00,South,180,8.0,17.0,12,0.00,,,0.00,meteohub,2013-03-30 20:20:00,
2013-03-30 13:25:00,81.0,21.6,-100.00,SSE,155,8.0,14.0,11,0.00,,,0.00,meteohub,2013-03-30 20:25:00,
2013-03-30 13:30:00,81.0,23.5,-100.00,SE,128,2.0,13.0,12,0.00,,,0.00,meteohub,2013-03-30 20:30:00,
2013-03-30 13:35:00,81.3,21.7,-100.00,ESE,107,2.0,16.0,11,0.00,,,0.00,meteohub,2013-03-30 20:35:00,
2013-03-30 13:40:00,81.0,23.5,-100.00,South,190,12.0,16.0,12,0.00,,,0.00,meteohub,2013-03-30 20:40:00,
2013-03-30 13:45:00,80.2,25.0,-100.00,East,83,6.0,12.0,13,0.00,,,0.00,meteohub,2013-03-30 20:45:00,
2013-03-30 13:50:00,79.5,24.4,-100.00,South,170,10.0,15.0,13,0.00,,,0.00,meteohub,2013-03-30 20:50:00,
2013-03-30 13:55:00,79.7,26.2,-100.00,WSW,254,5.0,15.0,14,0.00,,,0.00,meteohub,2013-03-30 20:55:00,
2013-03-30 14:00:00,80.1,26.6,-100.00,SW,223,6.0,13.0,14,0.00,,,0.00,meteohub,2013-03-30 21:00:00,
2013-03-30 14:05:00,80.1,26.6,-100.00,SSW,194,5.0,15.0,14,0.00,,,0.00,meteohub,2013-03-30 21:05:00,
2013-03-30 14:10:00,79.3,26.1,-100.00,SSW,201,6.0,15.0,14,0.00,,,0.00,meteohub,2013-03-30 21:10:00,
2013-03-30 14:15:00,80.4,26.8,-100.00,SSW,203,8.0,14.0,14,0.00,,,0.00,meteohub,2013-03-30 21:15:00,
2013-03-30 14:20:00,80.4,26.8,-100.00,WSW,255,9.0,18.0,14,0.00,,,0.00,meteohub,2013-03-30 21:20:00,
2013-03-30 14:25:00,80.6,30.2,-100.00,SSW,205,9.0,18.0,16,0.00,,,0.00,meteohub,2013-03-30 21:25:00,
2013-03-30 14:30:00,81.3,27.5,-100.00,SW,226,15.0,18.0,14,0.00,,,0.00,meteohub,2013-03-30 21:30:00,
2013-03-30 14:35:00,81.7,29.5,-100.00,SW,234,13.0,19.0,15,0.00,,,0.00,meteohub,2013-03-30 21:35:00,
2013-03-30 14:40:00,81.7,27.9,-100.00,SSE,160,12.0,19.0,14,0.00,,,0.00,meteohub,2013-03-30 21:40:00,
2013-03-30 14:45:00,82.0,28.2,-100.00,SSW,209,11.0,19.0,14,0.00,,,0.00,meteohub,2013-03-30 21:45:00,
2013-03-30 14:50:00,81.9,28.0,-100.00,SW,216,16.0,17.0,14,0.00,,,0.00,meteohub,2013-03-30 21:50:00,
2013-03-30 14:55:00,81.7,27.9,-100.00,SW,229,3.0,20.0,14,0.00,,,0.00,meteohub,2013-03-30 21:55:00,
2013-03-30 15:00:00,81.9,28.0,-100.00,SSW,212,11.0,22.0,14,0.00,,,0.00,meteohub,2013-03-30 22:00:00,
2013-03-30 15:05:00,81.7,27.9,-100.00,WSW,238,1.0,22.0,14,0.00,,,0.00,meteohub,2013-03-30 22:05:00,
2013-03-30 15:10:00,81.9,28.0,-100.00,South,174,8.0,22.0,14,0.00,,,0.00,meteohub,2013-03-30 22:10:00,
2013-03-30 15:15:00,81.7,27.9,-100.00,SSW,196,8.0,20.0,14,0.00,,,0.00,meteohub,2013-03-30 22:15:00,
2013-03-30 15:20:00,81.9,28.0,-100.00,SSE,150,8.0,20.0,14,0.00,,,0.00,meteohub,2013-03-30 22:20:00,
2013-03-30 15:25:00,82.9,27.0,-100.00,SSW,196,2.0,20.0,13,0.00,,,0.00,meteohub,2013-03-30 22:25:00,
2013-03-30 15:30:00,82.8,28.8,-100.00,South,184,8.0,16.0,14,0.00,,,0.00,meteohub,2013-03-30 22:30:00,
2013-03-30 15:35:00,82.8,27.0,-100.00,SW,231,11.0,16.0,13,0.00,,,0.00,meteohub,2013-03-30 22:35:00,
2013-03-30 15:40:00,82.9,28.8,-100.00,SSE,150,9.0,17.0,14,0.00,,,0.00,meteohub,2013-03-30 22:40:00,
2013-03-30 15:45:00,82.8,27.0,-100.00,SSW,213,12.0,17.0,13,0.00,,,0.00,meteohub,2013-03-30 22:45:00,
2013-03-30 15:50:00,82.2,28.2,-100.00,SW,216,7.0,19.0,14,0.00,,,0.00,meteohub,2013-03-30 22:50:00,
2013-03-30 15:55:00,82.0,28.2,-100.00,South,182,4.0,19.0,14,0.00,,,0.00,meteohub,2013-03-30 22:55:00,
2013-03-30 16:00:00,81.9,28.0,-100.00,SSE,157,6.0,19.0,14,0.00,,,0.00,meteohub,2013-03-30 23:00:00,
2013-03-30 16:05:00,82.2,28.2,-100.00,SSE,153,9.0,18.0,14,0.00,,,0.00,meteohub,2013-03-30 23:05:00,
2013-03-30 16:10:00,82.8,28.8,-100.00,SSE,155,13.0,22.0,14,0.00,,,0.00,meteohub,2013-03-30 23:10:00,
2013-03-30 16:15:00,82.2,28.2,-100.00,South,173,4.0,22.0,14,0.00,,,0.00,meteohub,2013-03-30 23:15:00,
2013-03-30 16:20:00,82.6,28.6,-100.00,South,181,9.0,22.0,14,0.00,,,0.00,meteohub,2013-03-30 23:20:00,
2013-03-30 16:25:00,82.2,28.2,-100.00,SW,233,6.0,21.0,14,0.00,,,0.00,meteohub,2013-03-30 23:25:00,
2013-03-30 16:30:00,82.0,28.2,-100.00,SSW,194,2.0,19.0,14,0.00,,,0.00,meteohub,2013-03-30 23:30:00,
2013-03-30 16:35:00,82.0,28.2,-100.00,SW,215,13.0,19.0,14,0.00,,,0.00,meteohub,2013-03-30 23:35:00,
2013-03-30 16:40:00,82.2,28.2,-100.00,South,188,9.0,19.0,14,0.00,,,0.00,meteohub,2013-03-30 23:40:00,
2013-03-30 16:45:00,82.2,28.2,-100.00,SSW,202,10.0,14.0,14,0.00,,,0.00,meteohub,2013-03-30 23:45:00,
2013-03-30 16:50:00,81.9,28.0,-100.00,WSW,248,12.0,22.0,14,0.00,,,0.00,meteohub,2013-03-30 23:50:00,
2013-03-30 16:55:00,81.7,29.5,-100.00,SE,144,7.0,22.0,15,0.00,,,0.00,meteohub,2013-03-30 23:55:00,
2013-03-30 17:00:00,82.0,28.2,-100.00,SW,232,16.0,22.0,14,0.00,,,0.00,meteohub,2013-03-31 00:00:00,
2013-03-30 17:05:00,81.7,27.9,-100.00,SSE,164,15.0,19.0,14,0.00,,,0.00,meteohub,2013-03-31 00:05:00,
2013-03-30 17:10:00,81.1,29.1,-100.00,SSW,211,10.0,19.0,15,0.00,,,0.00,meteohub,2013-03-31 00:10:00,
2013-03-30 17:15:00,81.1,29.1,-100.00,SSW,201,3.0,20.0,15,0.00,,,0.00,meteohub,2013-03-31 00:15:00,
2013-03-30 17:20:00,81.1,29.1,-100.00,SSW,205,7.0,20.0,15,0.00,,,0.00,meteohub,2013-03-31 00:20:00,
2013-03-30 17:25:00,81.0,28.9,-100.00,SSW,207,6.0,20.0,15,0.00,,,0.00,meteohub,2013-03-31 00:25:00,
2013-03-30 17:30:00,81.1,29.1,-100.00,SSW,202,12.0,21.0,15,0.00,,,0.00,meteohub,2013-03-31 00:30:00,
2013-03-30 17:35:00,80.8,28.8,-100.00,South,186,19.0,23.0,15,0.00,,,0.00,meteohub,2013-03-31 00:35:00,
2013-03-30 17:40:00,80.6,30.2,-100.00,SSW,213,16.0,23.0,16,0.00,,,0.00,meteohub,2013-03-31 00:40:00,
2013-03-30 17:45:00,80.1,29.8,-100.00,SW,220,9.0,23.0,16,0.00,,,0.00,meteohub,2013-03-31 00:45:00,
2013-03-30 17:50:00,79.9,29.7,-100.00,SW,220,8.0,26.0,16,0.00,,,0.00,meteohub,2013-03-31 00:50:00,
2013-03-30 17:55:00,80.2,30.0,-100.00,SW,218,12.0,26.0,16,0.00,,,0.00,meteohub,2013-03-31 00:55:00,
2013-03-30 18:00:00,79.9,29.7,-100.00,South,179,17.0,26.0,16,0.00,,,0.00,meteohub,2013-03-31 01:00:00,
2013-03-30 18:05:00,79.2,30.6,-100.00,SSW,208,11.0,22.0,17,0.00,,,0.00,meteohub,2013-03-31 01:05:00,
2013-03-30 18:10:00,79.0,30.4,-100.00,SSE,165,20.0,22.0,17,0.00,,,0.00,meteohub,2013-03-31 01:10:00,
2013-03-30 18:15:00,78.6,30.2,-100.00,SW,218,17.0,22.0,17,0.00,,,0.00,meteohub,2013-03-31 01:15:00,
2013-03-30 18:20:00,78.4,30.0,-100.00,SW,223,17.0,25.0,17,0.00,,,0.00,meteohub,2013-03-31 01:20:00,
2013-03-30 18:25:00,78.1,31.1,-100.00,SSW,211,11.0,25.0,18,0.00,,,0.00,meteohub,2013-03-31 01:25:00,
2013-03-30 18:30:00,77.9,30.9,-100.00,WSW,253,7.0,23.0,18,0.00,,,0.00,meteohub,2013-03-31 01:30:00,
2013-03-30 18:35:00,77.7,30.9,-100.00,SSW,202,11.0,23.0,18,0.00,,,0.00,meteohub,2013-03-31 01:35:00,
2013-03-30 18:40:00,77.5,30.7,-100.00,SSW,199,18.0,21.0,18,0.00,,,0.00,meteohub,2013-03-31 01:40:00,
2013-03-30 18:45:00,77.2,31.8,-100.00,SSW,213,9.0,22.0,19,0.00,,,0.00,meteohub,2013-03-31 01:45:00,
2013-03-30 18:50:00,76.8,31.5,-100.00,SSW,196,10.0,22.0,19,0.00,,,0.00,meteohub,2013-03-31 01:50:00,
2013-03-30 18:55:00,76.6,31.3,-100.00,SSW,209,9.0,22.0,19,0.00,,,0.00,meteohub,2013-03-31 01:55:00,
2013-03-30 19:00:00,76.3,30.9,-100.00,SSW,200,16.0,21.0,19,0.00,,,0.00,meteohub,2013-03-31 02:00:00,
2013-03-30 19:05:00,75.7,31.8,-100.00,SSW,211,8.0,23.0,20,0.00,,,0.00,meteohub,2013-03-31 02:05:00,
2013-03-30 19:10:00,75.6,31.6,-100.00,SW,214,9.0,23.0,20,0.00,,,0.00,meteohub,2013-03-31 02:10:00,
2013-03-30 19:15:00,75.4,31.5,-100.00,SW,221,5.0,23.0,20,0.00,,,0.00,meteohub,2013-03-31 02:15:00,
2013-03-30 19:20:00,75.0,32.4,-100.00,SW,227,13.0,21.0,21,0.00,,,0.00,meteohub,2013-03-31 02:20:00,
2013-03-30 19:25:00,74.8,32.4,-100.00,SW,225,17.0,22.0,21,0.00,,,0.00,meteohub,2013-03-31 02:25:00,
2013-03-30 19:30:00,74.7,32.2,-100.00,SW,217,11.0,22.0,21,0.00,,,0.00,meteohub,2013-03-31 02:30:00,
2013-03-30 19:35:00,74.1,34.0,-100.00,SW,223,12.0,23.0,23,0.00,,,0.00,meteohub,2013-03-31 02:35:00,
2013-03-30 19:40:00,73.8,33.6,-100.00,SSW,194,20.0,23.0,23,0.00,,,0.00,meteohub,2013-03-31 02:40:00,
2013-03-30 19:45:00,73.2,34.3,-100.00,SSW,213,14.0,23.0,24,0.00,,,0.00,meteohub,2013-03-31 02:45:00,
2013-03-30 19:50:00,73.2,34.3,-100.00,SW,234,13.0,25.0,24,0.00,,,0.00,meteohub,2013-03-31 02:50:00,
2013-03-30 19:55:00,73.0,35.1,-100.00,SW,231,15.0,25.0,25,0.00,,,0.00,meteohub,2013-03-31 02:55:00,
2013-03-30 20:00:00,72.9,35.1,-100.00,South,182,6.0,23.0,25,0.00,,,0.00,meteohub,2013-03-31 03:00:00,
2013-03-30 20:05:00,72.5,35.6,-100.00,SW,214,18.0,24.0,26,0.00,,,0.00,meteohub,2013-03-31 03:05:00,
2013-03-30 20:10:00,72.1,35.4,-100.00,SSW,202,11.0,24.0,26,0.00,,,0.00,meteohub,2013-03-31 03:10:00,
2013-03-30 20:15:00,72.0,35.2,-100.00,SSW,208,11.0,24.0,26,0.00,,,0.00,meteohub,2013-03-31 03:15:00,
2013-03-30 20:20:00,71.8,36.0,-100.00,SSW,205,15.0,24.0,27,0.00,,,0.00,meteohub,2013-03-31 03:20:00,
2013-03-30 20:25:00,71.4,36.7,-100.00,SSW,203,12.0,23.0,28,0.00,,,0.00,meteohub,2013-03-31 03:25:00,
2013-03-30 20:30:00,71.2,36.5,-100.00,South,185,19.0,29.0,28,0.00,,,0.00,meteohub,2013-03-31 03:30:00,
2013-03-30 20:35:00,70.9,37.0,-100.00,SW,225,18.0,29.0,29,0.00,,,0.00,meteohub,2013-03-31 03:35:00,
2013-03-30 20:40:00,70.7,37.8,-100.00,SSW,209,16.0,29.0,30,0.00,,,0.00,meteohub,2013-03-31 03:40:00,
2013-03-30 20:45:00,70.5,37.6,-100.00,SSW,204,17.0,27.0,30,0.00,,,0.00,meteohub,2013-03-31 03:45:00,
2013-03-30 20:50:00,70.3,37.4,-100.00,SSW,192,13.0,25.0,30,0.00,,,0.00,meteohub,2013-03-31 03:50:00,
2013-03-30 20:55:00,70.2,38.1,-100.00,SW,225,14.0,26.0,31,0.00,,,0.00,meteohub,2013-03-31 03:55:00,
2013-03-30 21:00:00,70.0,37.9,-100.00,SSW,200,20.0,26.0,31,0.00,,,0.00,meteohub,2013-03-31 04:00:00,
2013-03-30 21:05:00,69.8,37.8,-100.00,WSW,238,9.0,26.0,31,0.00,,,0.00,meteohub,2013-03-31 04:05:00,
2013-03-30 21:10:00,69.4,38.3,-100.00,SW,215,12.0,25.0,32,0.00,,,0.00,meteohub,2013-03-31 04:10:00,
2013-03-30 21:15:00,69.4,38.3,-100.00,SW,216,17.0,28.0,32,0.00,,,0.00,meteohub,2013-03-31 04:15:00,
2013-03-30 21:20:00,69.3,38.1,-100.00,SW,219,17.0,28.0,32,0.00,,,0.00,meteohub,2013-03-31 04:20:00,
2013-03-30 21:25:00,69.1,38.8,-100.00,SSW,202,16.0,28.0,33,0.00,,,0.00,meteohub,2013-03-31 04:25:00,
2013-03-30 21:30:00,68.9,37.8,-100.00,SSW,198,8.0,28.0,32,0.00,,,0.00,meteohub,2013-03-31 04:30:00,
2013-03-30 21:35:00,68.7,37.6,-100.00,SW,228,14.0,25.0,32,0.00,,,0.00,meteohub,2013-03-31 04:35:00,
2013-03-30 21:40:00,68.7,38.5,-100.00,WSW,238,12.0,24.0,33,0.00,,,0.00,meteohub,2013-03-31 04:40:00,
2013-03-30 21:45:00,68.7,37.6,-100.00,SW,223,16.0,22.0,32,0.00,,,0.00,meteohub,2013-03-31 04:45:00,
2013-03-30 21:50:00,68.5,37.6,-100.00,South,190,18.0,22.0,32,0.00,,,0.00,meteohub,2013-03-31 04:50:00,
2013-03-30 21:55:00,68.5,37.6,-100.00,SSW,197,17.0,22.0,32,0.00,,,0.00,meteohub,2013-03-31 04:55:00,
2013-03-30 22:00:00,68.7,37.6,-100.00,South,180,9.0,22.0,32,0.00,,,0.00,meteohub,2013-03-31 05:00:00,
2013-03-30 22:05:00,68.7,37.6,-100.00,South,184,15.0,21.0,32,0.00,,,0.00,meteohub,2013-03-31 05:05:00,
2013-03-30 22:10:00,68.5,37.6,-100.00,South,172,12.0,21.0,32,0.00,,,0.00,meteohub,2013-03-31 05:10:00,
2013-03-30 22:15:00,68.4,38.1,-100.00,SSW,196,11.0,21.0,33,0.00,,,0.00,meteohub,2013-03-31 05:15:00,
2013-03-30 22:20:00,68.2,37.9,-100.00,South,182,20.0,22.0,33,0.00,,,0.00,meteohub,2013-03-31 05:20:00,
2013-03-30 22:25:00,68.2,37.9,-100.00,SSW,211,13.0,26.0,33,0.00,,,0.00,meteohub,2013-03-31 05:25:00,
2013-03-30 22:30:00,67.8,38.5,-100.00,SSW,205,19.0,26.0,34,0.00,,,0.00,meteohub,2013-03-31 05:30:00,
2013-03-30 22:35:00,67.6,38.3,-100.00,SW,223,11.0,26.0,34,0.00,,,0.00,meteohub,2013-03-31 05:35:00,
2013-03-30 22:40:00,67.5,38.1,-100.00,SW,228,16.0,25.0,34,0.00,,,0.00,meteohub,2013-03-31 05:40:00,
2013-03-30 22:45:00,67.5,38.1,-100.00,SSW,212,14.0,25.0,34,0.00,,,0.00,meteohub,2013-03-31 05:45:00,
2013-03-30 22:50:00,67.5,38.1,-100.00,SSW,194,8.0,25.0,34,0.00,,,0.00,meteohub,2013-03-31 05:50:00,
2013-03-30 22:55:00,67.3,37.9,-100.00,SW,216,14.0,24.0,34,0.00,,,0.00,meteohub,2013-03-31 05:55:00,
2013-03-30 23:00:00,67.5,38.1,-100.00,WSW,242,11.0,25.0,34,0.00,,,0.00,meteohub,2013-03-31 06:00:00,
2013-03-30 23:05:00,67.3,37.9,-100.00,SW,219,18.0,25.0,34,0.00,,,0.00,meteohub,2013-03-31 06:05:00,
2013-03-30 23:10:00,67.5,37.4,-100.00,SW,219,14.0,25.0,33,0.00,,,0.00,meteohub,2013-03-31 06:10:00,
2013-03-30 23:15:00,67.5,38.1,-100.00,SW,215,10.0,21.0,34,0.00,,,0.00,meteohub,2013-03-31 06:15:00,
2013-03-30 23:20:00,67.5,38.1,-100.00,SW,228,8.0,23.0,34,0.00,,,0.00,meteohub,2013-03-31 06:20:00,
2013-03-30 23:25:00,67.5,38.8,-100.00,SW,223,16.0,23.0,35,0.00,,,0.00,meteohub,2013-03-31 06:25:00,
2013-03-30 23:30:00,67.3,38.7,-100.00,SW,222,9.0,23.0,35,0.00,,,0.00,meteohub,2013-03-31 06:30:00,
2013-03-30 23:35:00,67.1,38.5,-100.00,SW,233,11.0,23.0,35,0.00,,,0.00,meteohub,2013-03-31 06:35:00,
2013-03-30 23:40:00,67.1,38.5,-100.00,SW,226,8.0,24.0,35,0.00,,,0.00,meteohub,2013-03-31 06:40:00,
2013-03-30 23:45:00,66.9,38.3,-100.00,SW,224,14.0,24.0,35,0.00,,,0.00,meteohub,2013-03-31 06:45:00,
2013-03-30 23:50:00,66.7,38.3,-100.00,SW,232,6.0,24.0,35,0.00,,,0.00,meteohub,2013-03-31 06:50:00,
2013-03-30 23:55:00,66.7,38.3,-100.00,SW,224,13.0,22.0,35,0.00,,,0.00,meteohub,2013-03-31 06:55:00,